Regional Weather Roundup
Issued by NWS

Home | Current Version | Previous Version | Text Only | Print | Product List | Glossary On
Versions: 1 2 3 4 5 6 7 8 9 10 11 12 13 14 15 16 17 18 19 20 21 22 23 24 25 26 27 28
000
ASUS46 KSEW 011810
RWRWA

WASHINGTON REGIONAL WEATHER ROUNDUP
NATIONAL WEATHER SERVICE SEATTLE WA
1100 AM PDT SUN MAY 01 2016

NOTE:"FAIR" INDICATES FEW OR NO CLOUDS BELOW 12,000 FEET WITH NO
SIGNIFICANT WEATHER AND/OR OBSTRUCTIONS TO VISIBILITY.

WAZ505-507>509-011900-
SEATTLE, TACOMA, EVERETT, AND VICINITY

CITY           SKY/WX    TMP DP  RH WIND       PRES   REMARKS
EVERETT        SUNNY     59  46  62 N6        30.17F
6HR MIN TEMP:  47; 6HR MAX TEMP:  60;

BOEING FIELD   SUNNY     63  50  62 VRB6      30.14F
6HR MIN TEMP:  50; 6HR MAX TEMP:  64;

RENTON         SUNNY     63  49  60 NW13      30.13F
6HR MIN TEMP:  46; 6HR MAX TEMP:  63;

SEATAC AIRPORT MOSUNNY   67  49  52 N10       30.15F
6HR MIN TEMP:  50; 6HR MAX TEMP:  67;

JBLM-MCCHORD   SUNNY     65  50  59 NE12      30.13F
6HR MIN TEMP:  39; 6HR MAX TEMP:  65;

PUYALLUP       FAIR      66  50  55 CALM      30.13F
BREMERTON      SUNNY     64  48  55 NE14      30.15F
6HR MIN TEMP:  46; 6HR MAX TEMP:  64;

JBLM-FT LEWIS  SUNNY     64  48  56 N10       30.12F
6HR MIN TEMP:  39; 6HR MAX TEMP:  64;

TACOMA NARROWS SUNNY     62  45  53 N9        30.14F
6HR MIN TEMP:  45; 6HR MAX TEMP:  63;

$$

WAZ001-503-506-510-514-515-011900-
NORTH INTERIOR

CITY           SKY/WX    TMP DP  RH WIND       PRES   REMARKS
BELLINGHAM     SUNNY     65  46  50 N8        30.16F
6HR MIN TEMP:  40; 6HR MAX TEMP:  65;

FRIDAY HARBOR  SUNNY     63  45  51 N7        30.18F
6HR MIN TEMP:  41; 6HR MAX TEMP:  64;

EASTSOUND      SUNNY     57  48  72 NW6       30.17F
PORT ANGELES   SUNNY     60  46  59 VRB6      30.18F
6HR MIN TEMP:  40; 6HR MAX TEMP:  61;

EDIZ HOOK      FAIR      56  47  70 S6        30.18F
6HR MIN TEMP:  45; 6HR MAX TEMP:  57;

PORT TOWNSEND  FAIR      63  45  51 N6        30.17F
NAS WHIDBEY    MOSUNNY   59  48  67 NW8       30.21F
6HR MIN TEMP:  41; 6HR MAX TEMP:  59;

ARLINGTON      SUNNY     63  48  59 NW3       30.17F
6HR MIN TEMP:  39; 6HR MAX TEMP:  63;

BURLINGTON     SUNNY     61  50  67 W5        30.17F
$$

WAZ020-022-039-040-504-511-512-011900-
SOUTHWEST INTERIOR

CITY           SKY/WX    TMP DP  RH WIND       PRES   REMARKS
SHELTON        SUNNY     66  44  45 VRB5      30.11F
6HR MIN TEMP:  35; 6HR MAX TEMP:  66;

OLYMPIA        SUNNY     65  46  50 N14       30.13F
6HR MIN TEMP:  37; 6HR MAX TEMP:  65;

CHEHALIS       FAIR      66  50  55 VRB5G12   30.12F
KELSO          SUNNY     64  46  52 NW10      30.12F
6HR MIN TEMP:  45; 6HR MAX TEMP:  64;

VANCOUVER      SUNNY     65  48  54 NW9       30.07F
6HR MIN TEMP:  44; 6HR MAX TEMP:  65;

SCAPPOOSE, OR  SUNNY     67  51  56 CALM      30.06F
6HR MIN TEMP:  42; 6HR MAX TEMP:  67;

PORTLAND, OR   MOSUNNY   65  47  52 W10       30.07F
6HR MIN TEMP:  46; 6HR MAX TEMP:  66;

$$

WAZ021-516-517-011900-
WASHINGTON COAST

CITY           SKY/WX    TMP DP  RH WIND       PRES   REMARKS
FORKS          SUNNY     69  43  38 N3        30.11F
6HR MIN TEMP:  38; 6HR MAX TEMP:  69;

HOQUIAM        SUNNY     65  49  56 E13       30.10F HAZE
6HR MIN TEMP:  42; 6HR MAX TEMP:  65;

ASTORIA, OR    SUNNY     68  49  50 NE13      30.06F
6HR MIN TEMP:  42; 6HR MAX TEMP:  68;

$$

WAZ019-023-024-040-518-519-011900-
CASCADE MOUNTAINS AND COLUMBIA GORGE

CITY           SKY/WX    TMP DP  RH WIND       PRES   REMARKS
STAMPEDE PASS  SUNNY     55  34  45 CALM      30.20F
6HR MIN TEMP:  39; 6HR MAX TEMP:  55;

TROUTDALE, OR  SUNNY     66  48  52 VRB3      30.06F
6HR MIN TEMP:  43; 6HR MAX TEMP:  66;

THE DALLES, OR SUNNY     68  45  43 E6        30.12F
6HR MIN TEMP:  43; 6HR MAX TEMP:  68;

$$

WAZ026-027-041>044-520-521-011900-
EAST SLOPES

CITY           SKY/WX    TMP DP  RH WIND       PRES   REMARKS
OMAK           SUNNY     66  33  29 N17G23    30.21F
6HR MIN TEMP:  48; 6HR MAX TEMP:  66;

WENATCHEE      SUNNY     65  36  34 SW3       30.19F
6HR MIN TEMP:  47; 6HR MAX TEMP:  65;

ELLENSBURG     SUNNY     67  41  38 VRB5      30.18F
6HR MIN TEMP:  40; 6HR MAX TEMP:  68;

YAKIMA         SUNNY     72  38  29 VRB7G18   30.17F
6HR MIN TEMP:  45; 6HR MAX TEMP:  73;

$$

WAZ028-034-035-011900-
COLUMBIA BASIN

CITY           SKY/WX    TMP DP  RH WIND       PRES   REMARKS
EPHRATA        SUNNY     69  43  38 NE8       30.17F
6HR MIN TEMP:  49; 6HR MAX TEMP:  69;

MOSES LAKE     SUNNY     71  39  31 VRB5      30.17F
6HR MIN TEMP:  46; 6HR MAX TEMP:  72;

PASCO          SUNNY     65  47  52 W7        30.16F
6HR MIN TEMP:  40; 6HR MAX TEMP:  66;

HERMISTON, OR  SUNNY     65  46  50 VRB5      30.14F
6HR MIN TEMP:  38; 6HR MAX TEMP:  65;

$$

WAZ036>038-011900-
NORTHEAST WASHINGTON

CITY           SKY/WX    TMP DP  RH WIND       PRES   REMARKS
SPOKANE GEIGER MOSUNNY   63  39  41 N12       30.20F
6HR MIN TEMP:  43; 6HR MAX TEMP:  63;

SPOKANE FELTS  SUNNY     65  41  41 NE3       30.20F
6HR MIN TEMP:  40; 6HR MAX TEMP:  65;

FAIRCHILD AFB  SUNNY     61  40  45 NE12      30.19F
6HR MIN TEMP:  40; 6HR MAX TEMP:  61; 6HR PCP: TRACE;

COEURDALENE,ID SUNNY     63  45  51 NE15      30.18F
6HR MIN TEMP:  41; 6HR MAX TEMP:  63;

DEER PARK      SUNNY     65  38  36 NE12G20   30.21F
6HR MIN TEMP:  40; 6HR MAX TEMP:  65;

$$

WAZ029>033-011900-
SOUTHEAST WASHINGTON

CITY           SKY/WX    TMP DP  RH WIND       PRES   REMARKS
PULLMAN        SUNNY     61  40  45 E12       30.19F
6HR MIN TEMP:  37; 6HR MAX TEMP:  61;

LEWISTON, ID   SUNNY     60  47  61 VRB3      30.16F
6HR MIN TEMP:  42; 6HR MAX TEMP:  60;

WALLA WALLA    SUNNY     60  46  59 CALM      30.15F
6HR MIN TEMP:  42; 6HR MAX TEMP:  60;

PENDLETON, OR  SUNNY     65  41  41 VRB6      30.13F
6HR MIN TEMP:  39; 6HR MAX TEMP:  65;

$$




USA.gov is the U.S. government's official web portal to all federal, state and local government web resources and services.